Weather History for Waupaca, WI

Change the Weather History Date:

Saturday, February 16, 2013

  Actual Average Record
Temperature  
Mean Temperature 12 °F -  
Max Temperature 21 °F 29 °F 49 °F (1984)
Min Temperature 1 °F 10 °F -14 °F (1958)
Degree Days  
Heating Degree Days 53    
Moisture  
Dew Point -2 °F    
Average Humidity 58    
Maximum Humidity 79    
Minimum Humidity 33    
Precipitation  
Precipitation 0.00 in - - ()
Sea Level Pressure  
Sea Level Pressure 30.14 in    
Wind  
Wind Speed 6 mph (WNW)    
Max Wind Speed 12 mph    
Max Gust Speed -    
Visibility 10 miles    
Events      
Averages and records for this station are not official NWS values.
T = Trace of Precipitation, MM = Missing Value Source: NWS Daily Summary

Daily Weather History Graph

Daily Weather History Graph

Search for Another Location

Airport:

Trip Planner

Search our weather history database for the weather conditions in past years. The results will help you decide how hot, cold, wet, or windy it might be!

Date:

Astronomy

Feb. 16, 2013 Rise Set
Actual Time 6:53 AM CST 5:27 PM CST
Civil Twilight 6:24 AM CST 5:56 PM CST
Nautical Twilight 5:50 AM CST 6:30 PM CST
Astronomical Twilight 5:16 AM CST 7:04 PM CST
Moon 9:50 AM CST (2/16) No Moon Set
Length of Visible Light 11h 32m
Length of Day
10h 33m
Waxing Crescent, 39% of the Moon is Illuminated
Feb 16
Waxing Crescent
Feb 17
First Quarter
Feb 25
Full
Mar 4
Last Quarter
Mar 11
New

Hourly Weather History & Observations

Time (CST) Temp. Windchill Dew Point Humidity Pressure Visibility Wind Dir Wind Speed Gust Speed Precip Events Conditions
12:15 AM 10.4 °F -1.5 °F 3.2 °F 73% 30.17 in 10.0 mi West 8.1 mph - N/A   Clear
12:35 AM 8.6 °F -3.7 °F 3.2 °F 79% 30.17 in 10.0 mi West 8.1 mph - N/A   Clear
12:55 AM 8.6 °F -3.7 °F 1.4 °F 73% 30.16 in 10.0 mi West 8.1 mph - N/A   Clear
1:15 AM 8.6 °F -2.6 °F -0.4 °F 67% 30.17 in 10.0 mi West 6.9 mph - N/A   Clear
1:35 AM 8.6 °F -2.6 °F -0.4 °F 67% 30.16 in 10.0 mi West 6.9 mph - N/A   Clear
1:55 AM 6.8 °F -3.5 °F -0.4 °F 72% 30.16 in 10.0 mi West 5.8 mph - N/A   Clear
2:15 AM 6.8 °F -2.0 °F -0.4 °F 72% 30.15 in 10.0 mi WNW 4.6 mph - N/A   Clear
2:35 AM 5.0 °F -2.1 °F -2.2 °F 72% 30.15 in 10.0 mi West 3.5 mph - N/A   Clear
2:55 AM 5.0 °F -6.9 °F -2.2 °F 72% 30.14 in 10.0 mi West 6.9 mph - N/A   Clear
3:15 AM 5.0 °F -2.1 °F -2.2 °F 72% 30.14 in 10.0 mi WNW 3.5 mph - N/A   Clear
3:35 AM 5.0 °F -2.1 °F -4.0 °F 66% 30.14 in 10.0 mi WNW 3.5 mph - N/A   Clear
3:55 AM 3.2 °F -4.2 °F -4.0 °F 72% 30.14 in 10.0 mi West 3.5 mph - N/A   Clear
4:15 AM 5.0 °F -4.1 °F -2.2 °F 72% 30.13 in 10.0 mi WNW 4.6 mph - N/A   Clear
4:35 AM 5.0 °F -5.6 °F -2.2 °F 72% 30.13 in 10.0 mi West 5.8 mph - N/A   Clear
4:55 AM 5.0 °F -4.1 °F -2.2 °F 72% 30.13 in 10.0 mi West 4.6 mph - N/A   Clear
5:15 AM 3.2 °F -6.2 °F -2.2 °F 78% 30.13 in 10.0 mi WNW 4.6 mph - N/A   Clear
5:35 AM 5.0 °F -4.1 °F -0.4 °F 78% 30.13 in 10.0 mi West 4.6 mph - N/A   Clear
6:15 AM 3.2 °F -6.2 °F -2.2 °F 78% 30.13 in 10.0 mi West 4.6 mph - N/A   Clear
6:55 AM 3.2 °F -7.8 °F -4.0 °F 72% 30.13 in 10.0 mi West 5.8 mph - N/A   Clear
7:15 AM 3.2 °F -6.2 °F -2.2 °F 78% 30.14 in 10.0 mi WNW 4.6 mph - N/A   Clear
7:35 AM 5.0 °F -6.9 °F -0.4 °F 78% 30.14 in 10.0 mi WNW 6.9 mph - N/A   Clear
7:55 AM 6.8 °F -5.9 °F -0.4 °F 72% 30.14 in 10.0 mi WNW 8.1 mph - N/A   Clear
8:15 AM 8.6 °F -2.6 °F -0.4 °F 67% 30.14 in 10.0 mi NW 6.9 mph - N/A   Clear
8:35 AM 8.6 °F -6.3 °F -0.4 °F 67% 30.14 in 10.0 mi NW 11.5 mph - N/A   Clear
8:55 AM 10.4 °F -1.5 °F -0.4 °F 62% 30.14 in 10.0 mi NW 8.1 mph - N/A   Clear
9:15 AM 10.4 °F -2.4 °F -0.4 °F 62% 30.14 in 10.0 mi NW 9.2 mph - N/A   Clear
9:35 AM 12.2 °F -1.0 °F -0.4 °F 57% 30.14 in 10.0 mi NW 10.4 mph - N/A   Clear
12:15 PM 19.4 °F 9.5 °F -0.4 °F 42% 30.13 in 10.0 mi WNW 8.1 mph - N/A   Clear
12:35 PM 19.4 °F 14.3 °F -0.4 °F 42% 30.13 in 10.0 mi WNW 3.5 mph - N/A   Clear
12:55 PM 19.4 °F 10.4 °F -2.2 °F 39% 30.12 in 10.0 mi NW 6.9 mph - N/A   Clear
1:15 PM 21.2 °F 11.7 °F -2.2 °F 36% 30.12 in 10.0 mi NW 8.1 mph - N/A   Scattered Clouds
1:35 PM 19.4 °F 10.4 °F -4.0 °F 36% 30.12 in 10.0 mi NW 6.9 mph - N/A   Clear
1:55 PM 19.4 °F 11.5 °F -5.8 °F 33% 30.12 in 10.0 mi WNW 5.8 mph - N/A   Scattered Clouds
2:15 PM 19.4 °F 10.4 °F -4.0 °F 36% 30.11 in 10.0 mi WNW 6.9 mph - N/A   Mostly Cloudy
2:35 PM 19.4 °F 10.4 °F -5.8 °F 33% 30.11 in 10.0 mi WNW 6.9 mph - N/A   Scattered Clouds
2:55 PM 19.4 °F 10.4 °F -4.0 °F 36% 30.11 in 10.0 mi West 6.9 mph - N/A   Scattered Clouds
3:15 PM 19.4 °F 14.3 °F -4.0 °F 36% 30.12 in 10.0 mi WNW 3.5 mph - N/A   Scattered Clouds
3:35 PM 19.4 °F 10.4 °F -4.0 °F 36% 30.13 in 10.0 mi WNW 6.9 mph - N/A   Overcast
3:55 PM 19.4 °F 9.5 °F -4.0 °F 36% 30.13 in 10.0 mi NW 8.1 mph - N/A   Mostly Cloudy
4:15 PM 19.4 °F 10.4 °F -4.0 °F 36% 30.13 in 10.0 mi NW 6.9 mph - N/A   Mostly Cloudy
4:35 PM 19.4 °F 8.6 °F -4.0 °F 36% 30.13 in 10.0 mi WNW 9.2 mph - N/A   Overcast
4:55 PM 19.4 °F 10.4 °F -4.0 °F 36% 30.13 in 10.0 mi NW 6.9 mph - N/A   Overcast
5:15 PM 17.6 °F 9.3 °F -0.4 °F 45% 30.14 in 10.0 mi NNW 5.8 mph - N/A   Overcast
5:35 PM 17.6 °F 8.2 °F -0.4 °F 45% 30.15 in 10.0 mi North 6.9 mph - N/A   Overcast
5:55 PM 17.6 °F 12.3 °F -0.4 °F 45% 30.15 in 10.0 mi NW 3.5 mph - N/A   Overcast
6:15 PM 17.6 °F 8.2 °F -0.4 °F 45% 30.16 in 10.0 mi NNW 6.9 mph - N/A   Overcast
6:35 PM 15.8 °F 10.2 °F -0.4 °F 49% 30.16 in 10.0 mi NNW 3.5 mph - N/A   Overcast
6:55 PM 14.0 °F 8.2 °F 1.4 °F 57% 30.16 in 10.0 mi NW 3.5 mph - N/A   Mostly Cloudy
7:15 PM 14.0 °F - 1.4 °F 57% 30.16 in 10.0 mi Calm Calm - N/A   Scattered Clouds
7:35 PM 14.0 °F - 1.4 °F 57% 30.16 in 10.0 mi Calm Calm - N/A   Clear
7:55 PM 10.4 °F 2.2 °F -2.2 °F 57% 30.16 in 10.0 mi West 4.6 mph - N/A   Clear
8:15 PM 10.4 °F 4.0 °F -2.2 °F 57% 30.16 in 10.0 mi West 3.5 mph - N/A   Clear
8:35 PM 10.4 °F 4.0 °F -2.2 °F 57% 30.16 in 10.0 mi WNW 3.5 mph - N/A   Clear
8:55 PM 8.6 °F 2.0 °F -4.0 °F 57% 30.17 in 10.0 mi WNW 3.5 mph - N/A   Clear
9:15 PM 10.4 °F 0.8 °F -2.2 °F 57% 30.17 in 10.0 mi WNW 5.8 mph - N/A   Clear
9:35 PM 10.4 °F 4.0 °F -4.0 °F 52% 30.17 in 10.0 mi WNW 3.5 mph - N/A   Clear
9:55 PM 8.6 °F -1.3 °F -4.0 °F 57% 30.17 in 10.0 mi WNW 5.8 mph - N/A   Clear
10:15 PM 8.6 °F -1.3 °F -4.0 °F 57% 30.17 in 10.0 mi WNW 5.8 mph - N/A   Clear
10:35 PM 8.6 °F 0.1 °F -4.0 °F 57% 30.17 in 10.0 mi WNW 4.6 mph - N/A   Clear
10:55 PM 5.0 °F -2.1 °F -4.0 °F 66% 30.16 in 10.0 mi WNW 3.5 mph - N/A   Clear
11:15 PM 8.6 °F 2.0 °F -4.0 °F 57% 30.16 in 10.0 mi WNW 3.5 mph - N/A   Clear
11:35 PM 5.0 °F - -4.0 °F 66% 30.16 in 10.0 mi Calm Calm - N/A   Clear
11:55 PM 1.4 °F - -5.8 °F 72% 30.16 in 10.0 mi Calm Calm - N/A   Clear